Location: Franzen
(48.6167°N, 15.3833°E)
Time: 13:15:09
(UTC+00:00)

CZ-4C R/B - Pass Details

Date: 22 April 2021
Orbit: 611 x 1390 km, 63.4° (Epoch: 16 May)

Event Time Altitude Azimuth Distance (km) Brightness Sun altitude
Rises 18:52:43 0° 265° (W) 3,177 6.2 -8.7°
Reaches altitude 10° 18:55:13 10° 277° (W) 2,356 5.8 -9.0°
Maximum altitude 18:59:57 29° 338° (NNW) 1,584 4.3 -9.7°
Drops below altitude 10° 19:05:33 10° 36° (NE) 2,819 4.9 -10.5°
Sets 19:08:51 0° 47° (NE) 3,918 5.5 -10.9°
